Time,TemperatureF,DewpointF,PressureIn,WindDirection,WindDirectionDegrees,WindSpeedMPH,WindSpeedGustMPH,Humidity,HourlyPrecipIn,Conditions,Clouds,dailyrainin,SoftwareType,DateUTC
2015-03-05 00:13:00,38.8,38.0,29.94,WNW,298,1.0,2.0,97,0.04,,,0.01,weatherlink.com 1.10,2015-03-05 05:13:00,
2015-03-05 00:29:00,39.3,39.0,29.94,WNW,298,0.0,2.0,97,0.04,,,0.02,weatherlink.com 1.10,2015-03-05 05:29:00,
2015-03-05 00:44:00,39.4,39.0,29.94,WNW,298,1.0,2.0,97,0.03,,,0.03,weatherlink.com 1.10,2015-03-05 05:44:00,
2015-03-05 00:59:00,39.5,39.0,29.94,WNW,298,2.0,2.0,97,0.04,,,0.04,weatherlink.com 1.10,2015-03-05 05:59:00,
2015-03-05 01:14:00,39.4,39.0,29.95,WNW,298,1.0,3.0,97,0.03,,,0.04,weatherlink.com 1.10,2015-03-05 06:14:00,
2015-03-05 01:29:00,39.1,38.0,29.94,WNW,298,0.0,1.0,97,0.03,,,0.05,weatherlink.com 1.10,2015-03-05 06:29:00,
2015-03-05 01:44:00,39.4,39.0,29.96,WNW,298,1.0,3.0,97,0.03,,,0.06,weatherlink.com 1.10,2015-03-05 06:44:00,
2015-03-05 01:59:00,39.2,39.0,29.98,WNW,298,0.0,3.0,97,0.02,,,0.06,weatherlink.com 1.10,2015-03-05 06:59:00,
2015-03-05 02:14:00,38.7,38.0,29.98,WNW,298,0.0,3.0,97,0.03,,,0.07,weatherlink.com 1.10,2015-03-05 07:14:00,
2015-03-05 02:29:00,38.4,38.0,29.97,WNW,298,0.0,1.0,97,0.03,,,0.08,weatherlink.com 1.10,2015-03-05 07:29:00,
2015-03-05 02:44:00,38.4,38.0,29.95,West,265,0.0,2.0,97,0.02,,,0.08,weatherlink.com 1.10,2015-03-05 07:44:00,
2015-03-05 02:59:00,38.3,38.0,29.95,NW,304,1.0,2.0,97,0.03,,,0.09,weatherlink.com 1.10,2015-03-05 07:59:00,
2015-03-05 03:14:00,38.0,37.0,29.96,NW,305,1.0,2.0,97,0.02,,,0.09,weatherlink.com 1.10,2015-03-05 08:14:00,
2015-03-05 03:29:00,37.9,37.0,29.96,NW,305,0.0,2.0,97,0.01,,,0.09,weatherlink.com 1.10,2015-03-05 08:29:00,
2015-03-05 03:44:00,37.5,37.0,29.95,NW,305,0.0,2.0,97,0.01,,,0.09,weatherlink.com 1.10,2015-03-05 08:44:00,
2015-03-05 03:59:00,37.2,37.0,29.98,NW,305,1.0,2.0,97,0.01,,,0.10,weatherlink.com 1.10,2015-03-05 08:59:00,
2015-03-05 04:14:00,37.0,36.0,30.00,NW,305,2.0,4.0,97,0.01,,,0.10,weatherlink.com 1.10,2015-03-05 09:14:00,
2015-03-05 04:29:00,36.4,36.0,30.00,NW,319,3.0,5.0,97,0.03,,,0.12,weatherlink.com 1.10,2015-03-05 09:29:00,
2015-03-05 04:44:00,35.8,35.0,30.00,ENE,59,2.0,5.0,97,0.03,,,0.12,weatherlink.com 1.10,2015-03-05 09:44:00,
2015-03-05 04:59:00,35.5,35.0,30.00,NW,312,4.0,5.0,97,0.02,,,0.12,weatherlink.com 1.10,2015-03-05 09:59:00,
2015-03-05 05:14:00,35.3,35.0,30.01,NW,315,2.0,4.0,97,0.02,,,0.12,weatherlink.com 1.10,2015-03-05 10:14:00,
2015-03-05 05:44:00,35.0,34.0,30.04,NW,322,1.0,6.0,97,0.01,,,0.13,weatherlink.com 1.10,2015-03-05 10:44:00,
2015-03-05 05:59:00,34.7,34.0,30.02,NW,311,1.0,4.0,97,0.02,,,0.14,weatherlink.com 1.10,2015-03-05 10:59:00,
2015-03-05 06:14:00,34.4,34.0,30.05,NW,311,4.0,6.0,97,0.02,,,0.14,weatherlink.com 1.10,2015-03-05 11:14:00,
2015-03-05 06:29:00,33.6,33.0,30.06,NW,325,3.0,6.0,97,0.02,,,0.15,weatherlink.com 1.10,2015-03-05 11:29:00,
2015-03-05 06:44:00,33.3,32.0,30.05,NW,306,4.0,4.0,96,0.03,,,0.16,weatherlink.com 1.10,2015-03-05 11:44:00,
2015-03-05 06:59:00,33.2,32.0,30.05,NW,315,2.0,5.0,96,0.02,,,0.16,weatherlink.com 1.10,2015-03-05 11:59:00,
2015-03-05 07:14:00,33.2,32.0,30.05,NW,310,0.0,5.0,96,0.02,,,0.16,weatherlink.com 1.10,2015-03-05 12:14:00,
2015-03-05 07:29:00,33.2,32.0,30.06,NW,305,1.0,5.0,96,0.01,,,0.16,weatherlink.com 1.10,2015-03-05 12:29:00,
2015-03-05 07:44:00,33.1,32.0,30.07,NNW,329,3.0,4.0,96,0.00,,,0.16,weatherlink.com 1.10,2015-03-05 12:44:00,
2015-03-05 08:00:00,33.1,32.0,30.09,NW,317,3.0,5.0,96,0.01,,,0.17,weatherlink.com 1.10,2015-03-05 13:00:00,
2015-03-05 08:15:00,32.9,32.0,30.10,WNW,300,4.0,7.0,96,0.02,,,0.18,weatherlink.com 1.10,2015-03-05 13:15:00,
2015-03-05 08:30:00,32.5,32.0,30.11,WNW,288,2.0,7.0,96,0.03,,,0.19,weatherlink.com 1.10,2015-03-05 13:30:00,
2015-03-05 08:45:00,32.1,31.0,30.10,NW,320,4.0,7.0,96,0.04,,,0.20,weatherlink.com 1.10,2015-03-05 13:45:00,
2015-03-05 09:00:00,31.9,31.0,30.09,NW,320,2.0,6.0,96,0.05,,,0.22,weatherlink.com 1.10,2015-03-05 14:00:00,
2015-03-05 09:15:00,31.6,31.0,30.10,NW,305,2.0,6.0,96,0.04,,,0.22,weatherlink.com 1.10,2015-03-05 14:15:00,
2015-03-05 09:30:00,31.6,31.0,30.12,WNW,302,3.0,8.0,96,0.03,,,0.22,weatherlink.com 1.10,2015-03-05 14:30:00,
2015-03-05 09:45:00,31.5,31.0,30.10,WNW,296,1.0,5.0,96,0.02,,,0.22,weatherlink.com 1.10,2015-03-05 14:45:00,
2015-03-05 10:00:00,31.4,30.0,30.11,WNW,298,3.0,7.0,96,0.00,,,0.22,weatherlink.com 1.10,2015-03-05 15:00:00,
2015-03-05 10:15:00,31.5,31.0,30.13,West,261,1.0,4.0,96,0.01,,,0.23,weatherlink.com 1.10,2015-03-05 15:15:00,
2015-03-05 10:30:00,31.5,31.0,30.14,WNW,302,2.0,3.0,96,0.01,,,0.23,weatherlink.com 1.10,2015-03-05 15:30:00,
2015-03-05 10:45:00,31.5,31.0,30.14,WNW,294,1.0,4.0,96,0.01,,,0.23,weatherlink.com 1.10,2015-03-05 15:45:00,
2015-03-05 11:00:00,31.6,31.0,30.14,NW,323,2.0,5.0,96,0.01,,,0.23,weatherlink.com 1.10,2015-03-05 16:00:00,
2015-03-05 11:15:00,31.6,31.0,30.15,NW,323,1.0,3.0,96,0.01,,,0.24,weatherlink.com 1.10,2015-03-05 16:15:00,
2015-03-05 11:30:00,31.5,31.0,30.15,WNW,302,0.0,4.0,96,0.01,,,0.24,weatherlink.com 1.10,2015-03-05 16:30:00,
2015-03-05 11:45:00,31.2,30.0,30.16,NW,307,2.0,6.0,96,0.01,,,0.24,weatherlink.com 1.10,2015-03-05 16:45:00,
2015-03-05 12:00:00,31.2,30.0,30.14,NW,311,0.0,4.0,96,0.01,,,0.24,weatherlink.com 1.10,2015-03-05 17:00:00,
2015-03-05 12:15:00,31.3,30.0,30.13,NW,310,2.0,4.0,96,0.00,,,0.24,weatherlink.com 1.10,2015-03-05 17:15:00,
2015-03-05 12:30:00,30.9,30.0,30.14,WNW,302,2.0,7.0,96,0.01,,,0.25,weatherlink.com 1.10,2015-03-05 17:30:00,
2015-03-05 12:45:00,30.4,29.0,30.13,NNW,344,1.0,3.0,96,0.01,,,0.25,weatherlink.com 1.10,2015-03-05 17:45:00,
2015-03-05 13:00:00,30.2,29.0,30.13,NW,309,1.0,5.0,96,0.01,,,0.25,weatherlink.com 1.10,2015-03-05 18:00:00,
2015-03-05 13:15:00,30.1,29.0,30.14,NW,321,4.0,6.0,96,0.01,,,0.25,weatherlink.com 1.10,2015-03-05 18:15:00,
2015-03-05 13:31:00,29.7,29.0,30.18,NW,309,1.0,7.0,96,0.00,,,0.25,weatherlink.com 1.10,2015-03-05 18:31:00,
2015-03-05 13:45:00,29.4,28.0,30.17,NW,313,4.0,5.0,96,0.00,,,0.25,weatherlink.com 1.10,2015-03-05 18:45:00,
2015-03-05 14:00:00,29.3,28.0,30.18,NW,311,2.0,5.0,96,0.00,,,0.25,weatherlink.com 1.10,2015-03-05 19:00:00,
2015-03-05 14:15:00,29.2,28.0,30.16,WNW,302,3.0,4.0,96,0.00,,,0.25,weatherlink.com 1.10,2015-03-05 19:15:00,
2015-03-05 14:29:00,29.1,28.0,30.18,WNW,288,2.0,3.0,96,0.00,,,0.25,weatherlink.com 1.10,2015-03-05 19:29:00,
2015-03-05 14:45:00,28.1,27.0,30.16,North,360,1.0,3.0,96,0.00,,,0.25,weatherlink.com 1.10,2015-03-05 19:45:00,
2015-03-05 15:00:00,27.9,27.0,30.18,NNW,348,1.0,4.0,96,0.00,,,0.25,weatherlink.com 1.10,2015-03-05 20:00:00,
2015-03-05 15:15:00,27.1,26.0,30.18,NW,310,1.0,4.0,95,0.00,,,0.25,weatherlink.com 1.10,2015-03-05 20:15:00,
2015-03-05 15:30:00,26.8,26.0,30.18,NNW,338,1.0,3.0,96,0.00,,,0.25,weatherlink.com 1.10,2015-03-05 20:30:00,
2015-03-05 15:45:00,26.7,26.0,30.19,NNE,19,1.0,3.0,96,0.00,,,0.25,weatherlink.com 1.10,2015-03-05 20:45:00,
2015-03-05 16:00:00,26.3,25.0,30.20,NNW,348,1.0,3.0,96,0.00,,,0.25,weatherlink.com 1.10,2015-03-05 21:00:00,
2015-03-05 16:15:00,25.4,24.0,30.20,NW,325,2.0,4.0,95,0.00,,,0.25,weatherlink.com 1.10,2015-03-05 21:15:00,
2015-03-05 16:31:00,25.0,24.0,30.21,NW,322,2.0,6.0,95,0.00,,,0.25,weatherlink.com 1.10,2015-03-05 21:31:00,
2015-03-05 16:46:00,24.5,23.0,30.22,North,360,1.0,3.0,95,0.00,,,0.25,weatherlink.com 1.10,2015-03-05 21:46:00,
2015-03-05 17:01:00,24.2,23.0,30.23,NW,316,0.0,4.0,95,0.00,,,0.25,weatherlink.com 1.10,2015-03-05 22:01:00,
2015-03-05 17:16:00,24.0,23.0,30.23,NNW,340,3.0,4.0,95,0.00,,,0.25,weatherlink.com 1.10,2015-03-05 22:16:00,
2015-03-05 17:31:00,23.8,23.0,30.22,NW,318,1.0,3.0,95,0.00,,,0.25,weatherlink.com 1.10,2015-03-05 22:31:00,
2015-03-05 17:46:00,23.6,22.0,30.26,NW,304,1.0,6.0,95,0.00,,,0.25,weatherlink.com 1.10,2015-03-05 22:46:00,
2015-03-05 18:01:00,23.1,22.0,30.28,WNW,302,4.0,6.0,94,0.00,,,0.25,weatherlink.com 1.10,2015-03-05 23:01:00,
2015-03-05 18:16:00,22.7,21.0,30.26,WNW,302,2.0,6.0,94,0.00,,,0.25,weatherlink.com 1.10,2015-03-05 23:16:00,
2015-03-05 18:31:00,22.6,21.0,30.27,NNW,348,2.0,8.0,94,0.00,,,0.25,weatherlink.com 1.10,2015-03-05 23:31:00,
2015-03-05 18:46:00,22.5,21.0,30.31,WNW,297,1.0,6.0,94,0.00,,,0.25,weatherlink.com 1.10,2015-03-05 23:46:00,
2015-03-05 19:01:00,22.6,21.0,30.31,NNW,340,0.0,5.0,94,0.00,,,0.25,weatherlink.com 1.10,2015-03-06 00:01:00,
2015-03-05 19:16:00,22.6,21.0,30.30,NW,320,3.0,4.0,93,0.00,,,0.25,weatherlink.com 1.10,2015-03-06 00:16:00,
2015-03-05 19:31:00,22.9,21.0,30.32,WNW,300,0.0,5.0,93,0.00,,,0.25,weatherlink.com 1.10,2015-03-06 00:31:00,
2015-03-05 19:46:00,22.8,21.0,30.34,NNW,327,3.0,5.0,93,0.00,,,0.25,weatherlink.com 1.10,2015-03-06 00:46:00,
2015-03-05 20:01:00,22.5,21.0,30.34,NW,311,4.0,5.0,92,0.00,,,0.25,weatherlink.com 1.10,2015-03-06 01:01:00,